Weather Roundup
Issued by NWS Springfield, MO

Home | Current Version | Previous Version | Text Only | Print | Product List | Glossary On
Versions: 1 2 3 4 5 6 7 8 9 10 11 12 13 14 15 16 17 18 19 20 21 22 23 24 25 26 27 28 29 30 31 32 33 34 35 36 37 38 39 40 41 42 43 44 45 46 47 48 49 50
000
NZUS99 KSGF 290907
HRRSGF

HOURLY WEATHER
NATIONAL WEATHER SERVICE SPRINGFIELD MO
400 AM CDT FRI APR 29 2016

......SGF CWA......

CITY           SKY/WX    TMP DP  RH WIND       PRES   REMARKS
SPRINGFIELD    MOCLDY    54  48  80 NE15      30.00F
JOPLIN         MOCLDY    53  49  86 NE16      29.96F
WEST PLAINS    CLOUDY    54  46  74 NE8       29.99F
ROLLA          PTCLDY    51  48  89 N5        30.05R
OSAGE BEACH    PTCLDY    52  41  66 N5        30.07S

......SURROUNDING SGF CWA......

CITY           SKY/WX    TMP DP  RH WIND       PRES   REMARKS
CHANUTE        MOCLDY    52  45  77 NE13      29.99F
PARSONS        CLOUDY    53  47  79 NE10      29.98F
COFFEYVILLE    CLOUDY    54  47  77 NE17      29.95F
EMPORIA        CLOUDY    50  45  83 NE14      30.01F
GROVE OK       CLEAR     59  50  72 NE7       29.93S
ROGERS AR      PTCLDY    60  45  57 E8        29.93F
SILOAM SPRINGS CLOUDY    61  43  51 E6        29.90F
HARRISON AR    CLOUDY    54  47  77 CALM      29.96F
NEAR YELLVILLE CLOUDY   N/A N/A N/A N5        29.92F

......KANSAS AND MISSOURI......

CITY           SKY/WX    TMP DP  RH WIND       PRES   REMARKS
KANSAS CTY INT LGT RAIN  48  45  89 N16       30.04F
DOWNTOWN KC    CLOUDY    51  45  79 NE6       30.07F
COLUMBIA       CLOUDY    51  48  89 NW3       30.08R
SEDALIA        CLOUDY    51  47  86 N8        30.09S
ST JOSEPH      CLOUDY    49  43  80 N5        30.12F
ST LOUIS       CLOUDY    56  49  77 W5        30.07R
SPIRIT OF STL  CLOUDY    53  52  96 CALM      30.06R
KIRKSVILLE     CLOUDY    47  43  86 W6        30.10R
WICHITA        CLOUDY    53  46  77 E14       29.95F
TOPEKA         CLOUDY    49  45  86 N9        30.03F
OLATHE         CLOUDY    49  44  83 NE9       30.06F

......TENNESSEE......

CITY           SKY/WX    TMP DP  RH WIND       PRES   REMARKS
MEMPHIS        CLOUDY    68  50  52 E8        29.95R
NASHVILLE      CLOUDY    56  53  90 S5        30.00R

......ARKANSAS.......

CITY           SKY/WX    TMP DP  RH WIND       PRES   REMARKS
FAYETTEVILLE   CLEAR     55  50  83 CALM      29.89F
FT SMITH       CLOUDY    63  51  65 E13       29.81F
LITTLE ROCK    MOCLDY    63  57  81 E8        29.89F

......OKLAHOMA.......

CITY           SKY/WX    TMP DP  RH WIND       PRES   REMARKS
TULSA          CLOUDY    62  51  67 N13       29.87S
PONCA CITY     CLEAR     55  49  80 NE18G28   29.89F
MCALESTER      CLOUDY    67  54  63 NE6       29.72F THUNDER
OKLAHOMA CITY  LGT RAIN  57  54  89 NE14      29.83S

......IOWA............

CITY           SKY/WX    TMP DP  RH WIND       PRES   REMARKS
DES MOINES     CLOUDY    48  43  82 NW6       30.12R
QUAD CITIES    CLOUDY    46  43  89 VRB5      30.06R FOG

......ILLINOIS........

CITY           SKY/WX    TMP DP  RH WIND       PRES   REMARKS
QUINCY         CLOUDY    49  45  86 NW6       30.06R
CHICAGO        CLOUDY    43  41  93 N7        30.02R FOG




USA.gov is the U.S. government's official web portal to all federal, state and local government web resources and services.